SCP
1 0 0 0 0 0 0 0 0 0 0 0 0 0 0 0 0 0 0 1 1 0 0 0 1 1 1 1 0 0 0 0 0 0 0 0 0 1 1 1 1 1 1 1 1 1 1 1 1
1 1 0 0 0 0 0 0 0 0 0 0 0 0 0 0 0 0 0 1 0 0 0 0 1 1 1 1 0 0 0 0 0 0 0 0 0 0 0 1 1 1 1 1 1 1 1 1 1
1 1 1 1 0 0 0 0 0 0 0 0 0 0 0 0 0 0 0 1 0 0 0 0 1 1 1 0 0 0 0 0 0 0 0 0 0 0 0 0 0 1 1 1 1 1 1 1 1
1 1 1 1 0 0 0 0 0 0 0 0 0 0 0 0 0 0 0 0 0 0 0 0 0 0 0 0 0 0 0 0 0 0 0 0 0 0 0 0 0 1 1 1 1 1 1 1 1
1 1 1 1 0 1 1 0 0 0 0 0 0 0 0 0 0 0 0 0 0 0 0 0 0 0 0 0 0 0 0 0 0 0 0 0 0 0 0 0 0 0 0 0 1 1 1 1 1
1 1 1 1 1 1 1 0 0 0 0 0 0 0 0 0 0 0 0 0 0 0 0 0 0 0 0 0 0 0 0 0 0 0 0 0 0 0 0 0 0 0 0 0 0 0 1 1 1
1 1 1 1 1 1 1 0 0 0 0 0 0 0 0 0 0 0 0 0 0 0 0 0 0 0 0 0 0 0 0 0 0 0 0 0 0 0 0 0 0 0 0 0 0 0 0 1 1
1 1 1 1 1 1 1 1 1 1 1 0 0 0 0 0 0 0 1 1 1 0 0 0 0 0 0 0 0 0 0 0 1 1 0 0 0 0 0 0 0 0 0 0 0 0 0 1 1
2 1 1 1 1 1 1 1 1 1 1 1 0 1 1 1 0 1 1 1 1 0 0 0 0 0 0 0 0 0 0 0 1 0 0 0 0 0 0 0 0 0 0 0 0 0 0 1 0
1 1 1 1 1 1 1 1 1 1 1 1 1 1 1 1 1 1 1 1 1 0 0 0 0 0 0 0 0 0 0 0 0 0 0 0 0 0 0 0 1 1 0 0 0 0 0 0 0
1 1 1 1 1 1 1 1 1 1 0 0 1 1 1 1 1 1 1 1 0 0 0 0 0 0 0 0 0 0 0 0 0 0 0 0 0 0 0 0 0 0 0 0 0 0 0 0 0
1 1 1 1 1 1 1 1 1 0 0 0 1 1 1 1 1 0 0 0 0 0 0 0 0 0 0 0 0 0 0 0 0 0 0 0 0 0 0 0 0 0 0 0 0 0 0 0 0
1 1 1 1 1 1 1 1 1 0 0 0 1 1 1 1 0 0 0 0 0 0 0 0 0 0 0 0 0 0 0 0 0 0 0 0 0 0 0 0 0 0 0 0 0 0 0 0 0
1 1 1 1 1 1 1 1 0 0 1 1 1 1 1 1 0 0 0 0 0 0 0 0 0 0 0 0 0 0 0 0 0 0 0 0 0 0 0 0 0 0 0 0 0 0 0 0 0
1 1 1 1 1 1 1 0 0 0 1 1 1 1 1 1 1 1 0 0 0 0 0 0 0 0 0 0 0 0 0 0 0 0 0 0 0 0 0 0 0 0 0 0 0 0 0 0 0
1 1 1 1 1 0 0 0 0 0 1 1 1 1 1 1 1 1 1 0 0 0 0 0 0 0 0 0 1 0 0 0 0 0 0 0 0 0 0 0 0 0 0 0 0 0 0 0 0
1 0 0 0 0 0 0 0 1 1 1 1 1 1 1 1 1 1 1 1 0 0 0 0 1 1 1 1 1 1 1 1 0 0 0 0 0 0 0 0 0 0 0 0 0 0 0 0 0
0 0 0 0 0 0 0 0 1 1 1 1 1 1 1 1 1 2 1 1 1 1 1 1 1 1 1 1 1 1 1 1 1 0 0 0 0 0 0 0 0 0 0 0 0 0 0 0 0
0 0 0 0 1 0 0 0 1 1 1 1 1 1 2 1 1 1 1 1 1 1 0 0 1 1 1 1 1 1 1 1 1 1 0 0 0 0 1 1 1 1 1 1 1 0 0 0 0
0 0 0 1 1 0 0 0 1 1 1 1 1 1 2 1 1 1 1 1 1 0 0 0 0 0 1 1 1 1 1 1 1 1 0 0 0 0 0 1 1 1 1 1 1 0 0 0 0
0 0 0 0 0 0 0 0 0 0 1 1 1 1 1 1 1 1 1 1 0 0 0 0 0 0 1 1 1 1 1 1 0 0 0 0 0 0 0 0 0 0 1 1 1 0 0 0 0
0 0 0 0 0 0 0 0 0 0 0 1 1 1 1 1 1 0 0 0 0 0 0 0 0 0 1 1 1 1 0 0 0 0 0 0 0 0 0 0 0 0 0 0 0 0 0 0 0
0 0 0 0 0 0 0 0 0 0 0 0 1 1 1 1 1 0 0 0 0 0 0 0 0 0 0 1 1 1 0 0 0 0 0 0 0 0 0 0 0 0 0 0 0 0 0 0 0
0 0 0 0 0 0 0 0 0 0 0 0 1 1 1 2 1 1 0 0 0 0 0 0 0 0 0 0 0 0 0 0 0 0 0 0 0 0 0 0 0 0 0 0 0 0 0 0 0
0 0 0 0 0 0 0 0 0 0 0 0 0 1 2 2 1 1 0 0 0 0 0 0 0 0 0 0 0 0 0 0 0 0 0 0 0 0 0 0 0 0 0 0 0 0 0 0 0
0 0 0 0 0 0 0 0 0 0 0 0 0 1 1 2 1 1 0 0 0 1 1 1 1 0 0 0 0 0 0 0 0 0 0 0 0 0 0 0 0 0 0 0 0 0 0 0 0
0 0 0 0 0 0 0 0 0 0 0 0 0 1 1 2 1 1 0 0 1 1 1 1 1 0 0 0 0 0 0 0 0 0 0 0 0 0 0 0 0 0 0 0 0 0 0 0 0
0 0 0 0 0 0 0 0 0 0 0 0 0 1 1 1 1 1 0 1 1 1 1 1 0 0 0 0 0 0 0 0 0 0 0 0 0 0 0 0 0 0 0 0 0 0 0 0 0
0 0 0 0 0 0 0 0 0 0 0 0 0 1 1 1 1 1 1 1 1 0 0 0 0 0 0 0 0 0 0 0 0 0 0 0 0 0 0 0 0 0 0 0 0 0 0 0 0
0 0 0 0 0 0 0 0 0 0 0 0 0 0 0 0 0 1 1 1 1 0 0 0 0 0 0 0 0 0 0 0 0 0 0 0 0 0 0 0 0 0 0 0 0 0 0 0 0
Wind_Speed
5 6 5 2 2 3 1 2 5 4 4 5 5 7 12 12 9 8 4 9 14 14 12 11 11 11 11 11 11 10 10 10 9 9 8 8 7 6 6 5 5 5 4 4 4 4 4 4 4
6 5 3 2 3 2 1 2 6 6 6 4 5 10 12 12 12 10 6 9 13 14 12 11 12 12 11 11 11 10 10 10 9 8 7 7 6 5 5 5 4 4 4 4 4 4 4 4 4
9 6 3 3 4 1 3 4 5 7 4 4 7 12 10 8 10 8 8 10 13 13 12 12 12 12 11 11 10 10 9 9 8 8 7 6 5 5 5 5 4 4 4 4 4 4 4 4 4
4 3 4 4 5 1 4 5 5 7 5 4 7 10 11 9 9 11 11 11 13 13 13 11 12 12 11 10 10 9 9 8 7 7 6 6 6 5 5 5 5 4 4 4 4 4 4 4 3
2 3 4 4 4 4 5 5 4 5 5 7 11 12 11 12 14 13 10 11 12 13 12 12 12 12 11 10 9 9 8 7 7 6 6 5 5 5 5 4 4 4 4 4 4 4 4 4 4
2 3 4 3 1 4 5 5 4 5 5 8 11 12 9 11 12 11 10 9 11 12 12 12 12 12 11 10 9 8 7 7 6 5 5 4 3 3 3 3 4 4 4 4 4 5 5 5 4
3 3 5 3 1 2 3 3 4 3 5 6 8 10 10 11 10 9 9 8 9 11 11 11 10 10 11 10 9 8 6 5 4 3 2 1 1 1 1 1 2 3 3 4 4 5 5 5 5
2 3 5 2 2 1 2 3 4 4 4 5 6 8 10 12 10 9 8 8 8 8 9 9 9 9 9 8 9 8 6 4 3 2 2 3 4 4 4 2 1 1 3 4 5 5 6 6 7
4 3 3 1 2 2 2 4 2 4 5 8 10 12 15 14 12 9 7 6 5 6 6 7 7 7 6 7 8 7 6 5 4 4 5 5 3 2 3 4 4 1 3 5 6 7 8 8 8
4 3 3 1 2 3 3 4 2 3 6 8 11 14 15 13 11 10 9 8 6 5 5 5 6 6 5 4 5 3 3 3 3 1 2 1 1 2 1 4 4 4 6 7 8 10 10 8 4
6 5 2 1 2 2 2 2 2 3 3 6 11 14 13 12 10 9 8 7 7 6 4 4 5 5 5 3 3 1 1 1 1 1 1 1 2 2 1 0 2 4 5 3 3 6 4 3 2
7 5 2 1 2 1 1 1 2 3 3 7 8 13 13 11 9 8 8 8 7 6 5 5 4 5 5 4 2 1 1 1 1 2 3 2 1 2 2 1 2 2 1 1 2 2 3 2 2
8 5 2 2 1 1 1 2 1 3 5 8 9 11 11 9 8 8 8 8 8 6 5 5 3 4 4 4 1 3 2 1 2 1 2 2 1 2 2 2 2 2 2 2 2 3 3 3 3
6 6 4 3 3 3 4 4 3 3 5 7 10 9 10 8 9 8 8 8 8 7 6 5 3 4 3 3 2 2 1 2 1 1 2 2 2 2 2 2 2 2 2 2 2 3 2 2 1
6 5 5 5 6 5 4 4 4 5 6 6 9 9 10 9 8 7 8 8 8 7 7 6 4 4 4 4 2 2 1 2 2 1 2 3 2 2 3 3 3 2 3 3 3 4 3 2 2
7 6 5 7 8 6 4 3 4 6 8 6 7 8 7 7 8 7 7 7 7 7 7 6 4 4 4 3 2 2 2 3 2 2 3 4 4 4 3 3 3 3 3 3 2 2 3 3 2
8 8 8 7 9 7 6 5 6 8 8 7 7 8 8 8 8 7 7 7 6 6 7 7 5 4 4 3 2 2 2 2 2 3 3 4 4 4 3 2 2 3 3 3 4 3 2 2 3
10 10 9 9 9 9 7 6 5 6 8 7 6 8 8 8 8 8 7 6 5 6 7 7 6 4 4 2 2 2 2 1 2 2 2 2 3 4 3 2 3 3 3 3 3 3 3 2 2
6 6 6 7 9 9 7 6 5 4 5 5 5 6 7 7 8 8 7 6 5 6 6 6 6 5 4 2 1 1 1 0 1 1 2 1 2 3 3 3 3 3 2 3 3 3 3 3 2
5 5 5 4 7 7 8 7 6 5 4 4 4 5 6 7 9 8 7 6 5 5 5 5 5 5 5 3 2 1 1 0 2 1 2 2 3 3 3 3 2 2 2 3 3 3 2 2 2
6 7 8 7 7 7 6 5 7 7 6 4 4 5 6 6 9 8 7 7 5 5 5 4 4 5 5 4 2 1 2 1 1 1 1 1 1 2 2 3 3 3 2 1 2 2 2 2 3
6 7 6 7 6 4 6 4 5 7 7 6 5 5 6 5 6 7 7 7 6 5 5 4 4 4 5 5 3 2 1 1 1 1 1 0 1 1 1 2 3 3 2 2 3 2 2 2 2
4 5 6 7 6 4 4 3 3 7 7 7 6 6 6 6 6 7 6 6 6 5 4 4 4 4 5 4 4 2 1 1 1 1 1 0 0 0 0 1 2 2 2 2 2 2 2 1 2
5 6 6 6 3 3 5 4 1 4 7 8 7 7 7 7 6 6 6 6 5 5 4 4 3 4 4 4 3 3 2 1 1 1 0 1 1 1 0 0 1 1 1 2 1 1 2 1 2
8 5 3 3 2 3 7 5 3 3 6 8 9 8 8 7 7 7 6 6 5 4 4 4 4 4 4 3 3 3 3 2 2 1 1 1 1 0 0 1 0 1 1 2 2 2 2 1 1
8 5 1 1 3 3 6 6 6 6 7 7 7 7 8 8 7 7 6 5 5 5 4 3 4 3 3 3 2 2 2 2 1 1 1 1 1 0 1 1 0 0 1 2 2 2 2 2 1
5 4 3 2 2 2 4 9 8 7 7 7 8 8 7 7 7 7 7 6 5 5 4 3 3 3 3 3 3 2 2 1 1 1 1 0 1 0 1 1 1 0 0 1 1 1 2 2 2
4 2 2 2 2 4 7 8 7 7 7 7 8 8 7 7 7 7 6 5 5 4 4 4 3 3 3 2 2 2 2 2 1 1 1 1 2 1 1 2 2 1 1 1 1 1 2 2 2
7 6 3 3 3 2 5 4 8 9 8 8 8 8 8 7 7 6 5 5 5 4 4 3 3 2 2 2 2 1 2 2 2 2 1 2 2 2 2 2 1 1 1 1 1 2 1 2 2
5 4 3 2 2 1 4 4 6 9 8 9 10 9 8 7 7 6 5 5 4 4 3 3 3 2 2 1 1 1 1 1 2 2 2 2 2 2 2 2 2 2 1 1 1 2 2 2 2
Wind_Direction
238 233 230 250 257 241 268 84 94 82 72 60 54 61 66 53 54 91 122 108 112 113 116 112 106 102 98 95 93 91 89 85 81 79 78 72 64 57 48 42 38 33 28 25 20 21 15 9 9
255 241 248 245 257 256 84 76 93 88 90 95 74 69 75 70 81 100 111 110 116 115 115 109 107 102 98 95 92 89 86 83 80 79 76 69 62 54 45 36 27 19 16 12 8 6 358 353 358
255 255 256 247 261 307 108 101 97 97 96 88 85 71 61 72 85 103 121 122 112 108 107 108 108 103 99 95 92 88 84 81 77 74 69 63 58 51 43 35 24 12 8 7 6 359 350 347 350
250 257 250 254 276 51 116 116 116 109 99 78 80 78 68 63 91 114 125 119 111 110 109 113 110 106 102 98 95 91 86 80 75 71 67 60 51 43 36 29 21 13 6 357 352 349 341 338 339
251 256 256 262 279 88 94 96 96 100 88 78 82 89 85 85 104 117 116 113 114 114 117 120 116 112 108 104 101 94 87 82 76 71 65 57 46 37 30 24 19 14 6 359 351 342 331 326 315
260 256 261 272 286 83 84 80 89 87 93 98 102 99 97 108 108 114 116 120 120 120 122 124 126 123 118 111 104 97 89 83 77 70 64 55 42 33 26 21 14 6 356 351 346 339 326 315 302
256 273 269 272 74 59 84 78 85 94 79 69 95 104 115 115 116 120 122 122 121 127 132 136 141 136 129 123 117 111 104 94 88 82 73 45 305 293 319 40 24 2 348 337 330 320 312 300 288
245 285 285 296 100 84 74 78 82 88 83 73 78 108 126 128 131 123 123 123 128 132 136 139 144 144 144 140 139 138 137 138 146 163 215 247 253 240 228 172 110 353 327 314 307 298 292 284 275
253 256 270 280 131 154 135 112 93 107 96 80 73 98 123 132 132 133 131 124 120 120 128 135 137 136 139 144 146 161 167 177 190 206 227 250 252 230 195 140 147 212 273 277 277 278 278 273 265
220 247 265 296 113 159 157 119 117 100 95 98 99 109 126 137 140 145 144 138 133 131 136 134 127 131 131 119 132 164 156 163 197 183 175 242 329 344 24 150 196 229 252 261 259 266 271 262 247
221 234 251 336 86 144 125 103 89 73 98 122 129 132 140 147 149 149 140 139 141 137 128 122 124 124 120 116 117 129 135 130 154 35 84 22 2 343 6 141 205 236 246 257 252 254 256 255 243
238 248 254 331 49 92 106 91 79 82 107 104 123 142 148 152 153 148 146 145 139 135 140 131 129 126 121 107 119 146 100 94 72 30 13 40 22 339 358 344 7 335 329 335 322 296 303 314 313
234 237 228 230 239 208 181 159 126 124 129 128 138 144 149 152 153 149 147 141 137 139 135 119 124 108 111 113 144 98 88 66 89 78 337 26 35 4 0 348 5 343 347 346 332 321 336 343 350
220 217 216 223 223 211 200 197 192 165 145 146 144 148 156 157 158 154 147 145 143 148 140 124 116 106 100 108 95 87 95 137 76 59 355 30 35 8 1 352 359 352 335 325 320 324 336 334 329
218 211 216 220 218 209 206 223 199 169 158 158 158 159 160 162 163 157 153 150 145 147 135 127 128 106 87 76 63 95 78 76 71 64 16 17 32 9 20 358 359 348 339 342 347 340 339 322 327
214 216 224 224 208 195 191 229 222 187 172 169 162 157 156 162 166 159 154 148 145 139 130 127 125 112 98 80 46 46 55 47 50 62 37 6 15 22 27 2 349 339 352 353 346 342 343 342 345
209 212 211 217 200 188 188 201 203 193 168 167 167 160 162 169 167 156 154 150 144 140 132 131 122 116 111 110 110 67 59 47 37 54 44 8 5 10 26 351 335 359 8 354 343 5 353 342 337
203 203 200 200 189 192 192 195 182 178 174 173 175 169 171 171 166 155 150 143 145 138 132 129 125 120 114 104 92 85 63 45 59 67 68 18 359 13 13 342 12 8 4 350 344 352 342 316 302
217 214 199 190 181 183 183 185 176 178 170 170 174 171 165 159 151 145 146 144 145 135 130 130 137 132 119 101 91 88 86 27 74 67 62 20 23 17 8 0 4 8 6 350 357 352 340 332 335
221 201 208 190 174 180 178 176 163 167 172 166 153 152 152 151 143 145 143 142 141 129 128 132 132 129 123 126 121 124 117 126 115 81 61 26 27 16 3 3 353 0 357 2 352 348 347 326 336
206 215 205 169 174 183 165 173 171 166 168 162 143 131 127 139 143 146 146 142 138 134 137 136 135 133 129 133 113 83 73 352 87 110 96 49 32 28 13 355 352 347 359 358 336 356 356 323 323
196 208 201 174 175 182 189 163 172 166 162 158 153 142 135 136 136 142 147 146 148 142 139 141 135 136 133 132 119 125 144 112 109 100 117 196 137 60 22 349 339 342 352 359 354 20 343 334 325
199 187 198 202 191 184 189 149 172 164 162 160 157 148 138 132 131 137 140 142 139 136 137 132 127 121 118 124 141 168 120 90 80 77 102 297 167 173 123 3 335 337 346 359 4 356 349 344 333
199 198 208 217 210 208 175 145 166 173 166 159 153 147 135 129 127 126 128 126 123 124 123 118 115 118 125 142 157 167 156 159 130 109 3 284 247 222 188 211 315 337 349 342 342 327 335 327 329
217 203 195 193 187 192 170 143 150 138 139 142 148 145 140 139 139 134 130 130 129 128 131 134 131 136 144 166 175 170 166 193 187 172 217 262 284 257 292 354 339 357 347 334 341 338 320 313 332
214 215 188 194 170 181 178 133 118 119 111 113 122 133 136 137 134 132 135 138 139 139 148 148 147 154 162 182 177 172 172 179 145 191 247 239 267 280 54 313 331 6 340 337 351 333 327 337 333
219 196 189 234 199 170 136 113 116 120 117 117 118 120 121 123 122 122 127 130 130 137 149 149 154 161 172 189 186 187 182 158 158 232 269 318 298 294 348 312 304 262 260 316 344 322 324 331 327
256 259 197 210 170 159 150 145 144 141 131 129 124 119 116 115 114 115 118 122 125 125 132 137 151 168 171 180 195 184 173 167 183 236 251 302 289 296 283 285 287 269 224 223 224 285 302 314 301
213 215 215 234 227 168 130 100 133 140 136 133 125 117 113 111 107 106 107 107 110 115 125 136 145 156 152 172 190 177 184 196 208 216 218 241 259 258 257 266 285 294 272 252 237 244 257 277 285
255 253 248 253 258 137 117 106 118 124 125 125 120 115 111 108 104 102 103 104 102 110 123 132 143 141 140 169 181 184 176 199 237 234 228 246 257 260 261 258 252 271 278 274 263 262 257 248 260